[[{"header":{"parameterUnit":"m.s-1","parameterCategory":1,"la1":30.2991,"la2":30.254,"lo1":-89.0895,"lo2":-89.0444,"dx":0.0017,"dy":0.0017,"nx":28,"ny":28,"refTime":"2023-01-02T15:00:00:Z","depth":0,"parameterNumber":2,"parameterNumberName":"U-component_of_WINDS"},"data":[0,0,0,0,0,0,0,0,0,0,0,0,0,0,0,0,0,0,0,0,0,0,0,0,0,0,0,0,0,0,0,0,0,0,0,0,0,0,0,0,0,0,0,0,0,0,0,0,0,0,0,0,0,0,0,0,0,0,-0.3916,-0.3916,0,-0.3976,-0.3976,-0.3977,-0.4041,-0.4042,-0.4043,-0.4044,-0.4101,-0.4102,-0.4102,0,0,0,0,0,0,0,0,0,0,0,0,0,-0.3853,-0.3854,-0.3916,-0.3917,-0.3917,-0.3975,-0.3976,-0.3977,-0.4041,-0.4042,-0.4043,-0.4044,-0.4101,-0.4102,-0.4102,0,0,0,0,0,0,0,0,0,0,0,0,0,-0.3893,-0.3854,-0.3916,-0.3956,-0.3961,-0.3975,-0.3976,-0.3977,-0.4041,-0.4042,-0.4044,-0.4045,-0.4101,-0.4102,-0.4103,-0.4081,0,0,-0.4106,-0.4106,0,0,0,0,0,0,0,0,-0.3891,-0.3895,-0.395,-0.3954,-0.3958,-0.4003,-0.3975,-0.4012,-0.404,-0.401,-0.4044,-0.4046,-0.4067,-0.4071,-0.4079,-0.4083,-0.4086,-0.4106,-0.4106,-0.4107,-0.4107,0,0,0,0,0,0,0,-0.3888,-0.3893,-0.3939,-0.395,-0.3956,-0.397,-0.3977,-0.3982,-0.403,-0.4013,-0.4018,-0.4024,-0.407,-0.4078,-0.4081,-0.4087,-0.4106,-0.4106,-0.4107,-0.4107,-0.4075,-0.4074,0,0,0,0,0,0,-0.388,-0.389,-0.3937,-0.3941,-0.3927,-0.397,-0.3978,-0.3987,-0.403,-0.4038,-0.4023,-0.4027,-0.4075,-0.4079,-0.4083,-0.4059,-0.4107,-0.4108,-0.4108,-0.4077,-0.4075,-0.4073,0,0,0,0,0,0,-0.3878,-0.3883,-0.3935,-0.3917,-0.3925,-0.397,-0.3979,-0.3987,-0.3996,-0.4038,-0.4046,-0.4023,-0.4077,-0.4081,-0.4081,-0.4062,-0.4108,-0.4109,-0.4078,-0.4076,-0.4074,-0.4012,0,0,0,0,0,0,-0.3876,-0.3882,-0.3875,-0.3917,-0.3926,-0.3933,-0.3978,-0.3987,-0.3997,-0.4003,-0.404,-0.4047,-0.4078,-0.4079,-0.4082,-0.4064,-0.411,-0.408,-0.4077,-0.4075,-0.4015,-0.4008,-0.4001,0,0,0,0,0,-0.3873,-0.3855,-0.3875,-0.388,-0.3918,-0.3932,-0.3937,-0.3974,-0.3996,-0.3988,-0.4015,-0.4046,-0.4064,-0.4078,-0.4082,-0.4064,-0.4081,-0.4078,-0.4075,-0.4019,-0.4009,-0.4001,0,0,0,0,0,0,-0.3809,-0.3861,-0.3884,-0.3878,-0.39,-0.3943,-0.3935,-0.3963,-0.3978,-0.3983,-0.4027,-0.4035,-0.4028,-0.4047,-0.4062,-0.4045,-0.4077,-0.4074,-0.4033,-0.4024,-0.4017,-0.4012,-0.4111,0,0,0,0,0,-0.3794,-0.3802,-0.3847,-0.3837,-0.3848,-0.3889,-0.3896,-0.3923,-0.3947,-0.3957,-0.3984,-0.4005,-0.4015,-0.4021,-0.4033,-0.4019,-0.4027,-0.4009,-0.4001,-0.3995,-0.3991,-0.3984,-0.3976,-0.4063,-0.4063,-0.4063,0,0,-0.3763,-0.3793,-0.3795,-0.3825,-0.3846,-0.3851,-0.3896,-0.3901,-0.3905,-0.3957,-0.3958,-0.3978,-0.4005,-0.3997,-0.3995,-0.4012,-0.397,-0.3991,-0.3986,-0.3986,-0.398,-0.3972,-0.3964,-0.406,-0.4061,-0.4061,0,0,-0.371,-0.3734,-0.3728,-0.3748,-0.3778,-0.3806,-0.3805,-0.3843,-0.3859,-0.3861,-0.39,-0.3905,-0.3922,-0.3939,-0.395,-0.3903,-0.3931,-0.3906,-0.3866,-0.3859,-0.3852,-0.3846,-0.3827,-0.382,-0.3903,-0.3902,-0.3902,0,-0.3667,-0.3679,-0.3721,-0.3723,-0.3735,-0.3784,-0.3777,-0.3794,-0.3826,-0.3832,-0.3851,-0.3874,-0.3895,-0.3891,-0.3879,-0.3887,-0.3886,-0.3901,-0.385,-0.3844,-0.3839,-0.3822,-0.3815,-0.3899,-0.3899,-0.39,-0.39,0,-0.3624,-0.3632,-0.3623,-0.3654,-0.3665,-0.3662,-0.3703,-0.3708,-0.3734,-0.3759,-0.376,-0.3788,-0.3806,-0.3807,-0.3832,-0.3806,-0.3816,-0.3842,-0.3874,-0.3827,-0.3811,-0.3805,-0.3894,-0.3895,-0.3896,-0.3897,0,0,-0.3531,-0.3586,-0.3582,-0.3596,-0.3633,-0.3639,-0.3638,-0.3657,-0.366,-0.3681,-0.368,-0.3694,-0.3718,-0.373,-0.3758,-0.3751,-0.371,-0.3778,-0.3779,-0.3763,-0.3681,-0.366,-0.3652,-0.373,-0.3728,-0.3728,-0.3679,0,-0.3483,-0.3486,-0.3524,-0.3515,-0.3521,-0.3568,-0.3567,-0.3589,-0.3612,-0.362,-0.3646,-0.3654,-0.3686,-0.3694,-0.369,-0.3716,-0.3694,-0.372,-0.3727,-0.3727,-0.3717,-0.3644,-0.3622,-0.3575,-0.3673,-0.3672,-0.3671,0,-0.3427,-0.3445,-0.3437,-0.3474,-0.3478,-0.3477,-0.3497,-0.3504,-0.353,-0.3547,-0.3561,-0.3592,-0.3593,-0.3625,-0.3625,-0.3642,-0.3647,-0.3661,-0.366,-0.366,-0.3695,-0.3641,-0.3561,-0.3552,-0.3663,-0.3663,-0.3664,0,-0.3357,-0.338,-0.3378,-0.3389,-0.3432,-0.343,-0.3448,-0.3475,-0.3483,-0.35,-0.3506,-0.3522,-0.3531,-0.3542,-0.3576,-0.3597,-0.3572,-0.3608,-0.3585,-0.3584,-0.3576,-0.3576,-0.3493,-0.3582,-0.3583,-0.3583,-0.3583,0,-0.3299,-0.3292,-0.3347,-0.3346,-0.3339,-0.3382,-0.3374,-0.3396,-0.3419,-0.3422,-0.3463,-0.3464,-0.3511,-0.3517,-0.3544,-0.3539,-0.3543,-0.3556,-0.3562,-0.3551,-0.3549,-0.3554,-0.3557,-0.3581,-0.3581,-0.3582,-0.3582,0,-0.3219,-0.3257,-0.3257,-0.3298,-0.3309,-0.3301,-0.3336,-0.3335,-0.3362,-0.3365,-0.3368,-0.3408,-0.3418,-0.3454,-0.3472,-0.349,-0.3475,-0.349,-0.3467,-0.3471,-0.3446,-0.3447,-0.3362,-0.3352,-0.3449,-0.3448,-0.3447,0,-0.3178,-0.3174,-0.3215,-0.322,-0.3236,-0.3244,-0.3253,-0.3296,-0.3303,-0.3331,-0.3327,-0.334,-0.3352,-0.3365,-0.3395,-0.3408,-0.3423,-0.3392,-0.3425,-0.3413,-0.342,-0.3419,-0.3418,-0.3384,-0.3383,-0.3382,-0.3381,0,-0.3101,-0.312,-0.3132,-0.315,-0.316,-0.3176,-0.3195,-0.3196,-0.3243,-0.3249,-0.326,-0.3269,-0.3288,-0.3299,-0.3318,-0.3335,-0.3365,-0.3371,-0.3366,-0.3353,-0.3339,-0.3345,-0.3445,-0.3372,-0.3373,-0.3374,-0.3374,-0.3375,-0.3039,-0.3037,-0.3065,-0.3077,-0.3095,-0.3111,-0.3113,-0.314,-0.3149,-0.3168,-0.3193,-0.3199,-0.3224,-0.3252,-0.3267,-0.3272,-0.3289,-0.3283,-0.3281,-0.3278,-0.3271,-0.334,-0.3276,-0.3276,-0.3277,-0.3277,-0.3277,0,-0.2963,-0.2983,-0.2994,-0.3018,-0.3027,-0.3057,-0.3078,-0.3083,-0.3089,-0.311,-0.3122,-0.3133,-0.3144,-0.3176,-0.319,-0.3188,-0.3202,-0.319,-0.319,-0.3193,-0.3256,-0.3258,-0.3178,-0.3179,-0.3179,-0.3179,-0.3179,-0.3179,-0.2924,-0.2921,-0.2943,-0.295,-0.297,-0.2978,-0.2988,-0.3002,-0.3019,-0.303,-0.304,-0.3061,-0.3086,-0.3102,-0.3114,-0.3123,-0.3125,-0.3108,-0.3121,-0.3179,-0.3189,-0.3197,-0.3199,-0.3109,-0.3108,-0.3057,-0.3056,-0.3056]},{"header":{"parameterUnit":"m.s-1","parameterCategory":1,"la1":30.2991,"la2":30.254,"lo1":-89.0895,"lo2":-89.0444,"dx":0.0017,"dy":0.0017,"nx":28,"ny":28,"refTime":"2023-01-02T15:00:00:Z","depth":0,"parameterNumber":3,"parameterNumberName":"V-component_of_WINDS"},"data":[0,0,0,0,0,0,0,0,0,0,0,0,0,0,0,0,0,0,0,0,0,0,0,0,0,0,0,0,0,0,0,0,0,0,0,0,0,0,0,0,0,0,0,0,0,0,0,0,0,0,0,0,0,0,0,0,0,0,4.8939,4.8941,0,4.9125,4.9128,4.913,4.9164,4.9162,4.916,4.9159,4.9355,4.9362,4.9368,0,0,0,0,0,0,0,0,0,0,0,0,0,4.8619,4.8625,4.8938,4.8941,4.8943,4.9125,4.9128,4.913,4.9164,4.9162,4.916,4.9158,4.9353,4.9361,4.9369,0,0,0,0,0,0,0,0,0,0,0,0,0,4.8777,4.8627,4.8938,4.8982,4.8988,4.9125,4.9128,4.9131,4.9164,4.9162,4.916,4.9157,4.935,4.936,4.937,4.9478,0,0,4.9401,4.9405,0,0,0,0,0,0,0,0,4.8768,4.8789,4.8973,4.8979,4.8986,4.9119,4.9087,4.9248,4.9165,4.9097,4.9159,4.9156,4.9279,4.9295,4.9335,4.9488,4.9496,4.9402,4.9408,4.9412,4.9415,0,0,0,0,0,0,0,4.8757,4.8781,4.9013,4.8976,4.8983,4.8995,4.9015,4.9118,4.9199,4.9103,4.9106,4.9127,4.9282,4.9325,4.934,4.9499,4.9401,4.941,4.9416,4.942,4.9756,4.9759,0,0,0,0,0,0,4.8738,4.8772,4.9007,4.9018,4.8869,4.9002,4.9025,4.9078,4.9198,4.9214,4.9129,4.9128,4.9309,4.9328,4.9347,4.9486,4.9412,4.9421,4.9427,4.9753,4.9757,4.976,0,0,0,0,0,0,4.8731,4.8758,4.8999,4.8896,4.8927,4.901,4.9071,4.9083,4.9127,4.9218,4.9233,4.9158,4.9308,4.9333,4.9446,4.9493,4.9426,4.9435,4.975,4.9754,4.9758,4.9762,0,0,0,0,0,0,4.8721,4.8755,4.8795,4.8896,4.8933,4.9093,4.9073,4.9089,4.9143,4.9144,4.9249,4.9264,4.9308,4.9431,4.9456,4.9506,4.9443,4.9746,4.9752,4.9757,4.9758,4.9766,4.9773,0,0,0,0,0,4.871,4.8789,4.8797,4.8825,4.8984,4.9096,4.9117,4.9165,4.9147,4.9189,4.9249,4.9261,4.9483,4.9443,4.9471,4.9524,4.9743,4.975,4.9757,4.9755,4.9764,4.9772,0,0,0,0,0,0,4.8692,4.8802,4.8813,4.8926,4.9001,4.9101,4.9156,4.9173,4.9255,4.9253,4.931,4.9334,4.9446,4.9496,4.9449,4.9638,4.9612,4.9625,4.9601,4.9611,4.9618,4.9605,4.9451,0,0,0,0,0,4.87,4.878,4.8873,4.8965,4.9002,4.9072,4.9123,4.9153,4.9234,4.9266,4.9334,4.9413,4.9502,4.9559,4.9645,4.9765,4.9791,4.9816,4.9823,4.9828,4.984,4.9912,4.9926,4.9782,4.9782,4.9781,0,0,4.872,4.8791,4.8837,4.8963,4.9024,4.9109,4.9099,4.9187,4.9252,4.928,4.9393,4.9445,4.9538,4.9657,4.9712,4.9702,4.9885,4.9837,4.984,4.9849,4.9921,4.9934,4.9946,4.9786,4.9785,4.9785,0,0,4.88,4.8859,4.8944,4.9007,4.91,4.9147,4.9168,4.9266,4.9302,4.9415,4.944,4.9519,4.9668,4.9735,4.9788,4.9898,4.9914,4.9924,4.9963,5.0034,5.0045,5.0055,5.0099,5.0114,4.9934,4.9934,4.9935,0,4.8814,4.8939,4.8986,4.9075,4.9132,4.9161,4.925,4.9309,4.9426,4.9466,4.9452,4.9644,4.9708,4.9846,4.9873,4.9914,4.9943,4.9914,5.0039,5.005,5.0061,5.0103,5.0119,4.9935,4.9935,4.9935,4.9935,0,4.8954,4.9041,4.9099,4.9211,4.9274,4.9362,4.9427,4.9485,4.9511,4.9561,4.9679,4.9757,4.9862,4.9896,4.9922,5.0039,5.003,5.0027,5.0003,5.0075,5.0116,5.0132,4.9937,4.9936,4.9936,4.9936,0,0,4.9027,4.9167,4.9188,4.9241,4.9348,4.9418,4.9509,4.9611,4.9663,4.9743,4.9824,4.9952,4.9951,5.0012,5.0046,5.0107,5.0195,5.0097,5.01,5.0116,5.0335,5.0339,5.0357,5.0205,5.0208,5.0211,5.0329,0,4.9124,4.9286,4.9333,4.9471,4.9556,4.9586,4.9667,4.9743,4.9792,4.9873,4.9929,5.002,5.0009,5.0047,5.0109,5.0171,5.024,5.0162,5.0286,5.0289,5.0265,5.0378,5.0382,5.049,5.0344,5.0347,5.0349,0,4.9257,4.934,4.9487,4.9587,4.9624,4.9696,4.9796,4.9871,4.996,4.9992,5.0061,5.0091,5.0192,5.016,5.0303,5.0249,5.0302,5.0341,5.0346,5.0362,5.0326,5.0401,5.0524,5.0542,5.0374,5.0372,5.037,0,4.9302,4.9451,4.9559,4.9603,4.9721,4.9772,4.9824,4.991,4.997,5.0058,5.0098,5.0196,5.0251,5.0328,5.0385,5.0355,5.0524,5.0496,5.0558,5.0557,5.0594,5.0592,5.0732,5.0621,5.0621,5.0621,5.0621,0,4.9406,4.9496,4.9581,4.9648,4.9752,4.9806,4.9908,4.9961,5.0039,5.012,5.0151,5.0227,5.0296,5.0382,5.0427,5.0541,5.0564,5.0596,5.0608,5.0596,5.0592,5.0634,5.063,5.0625,5.0624,5.0623,5.0623,0,4.9475,4.9534,4.9656,4.9758,4.9786,4.9858,4.9948,5.0017,5.0067,5.017,5.0197,5.0279,5.0382,5.0446,5.0576,5.0607,5.0735,5.0741,5.0704,5.0711,5.0771,5.0766,5.0945,5.0974,5.084,5.0841,5.0842,0,4.9539,4.9609,4.972,4.9776,4.9828,4.9917,4.9979,5.0036,5.01,5.0208,5.0265,5.037,5.0458,5.0622,5.0695,5.0796,5.0809,5.0865,5.0824,5.0812,5.0816,5.0812,5.0822,5.0872,5.0874,5.0874,5.0875,0,4.9649,4.9676,4.9762,4.9861,4.9933,5.0013,5.0094,5.0138,5.021,5.028,5.0386,5.0454,5.0589,5.0695,5.0804,5.086,5.0882,5.0887,5.0908,5.0898,5.0876,5.0894,5.0728,5.0883,5.0883,5.0882,5.0882,5.0881,4.9721,4.9786,4.9875,4.9972,5.0039,5.0114,5.0185,5.0245,5.0334,5.0448,5.0476,5.0589,5.0681,5.0829,5.0888,5.0979,5.0971,5.1,5.1008,5.1015,5.1019,5.0858,5.0999,5.0999,5.0998,5.0998,5.0998,0,4.9836,4.9895,4.9984,5.0096,5.0173,5.0184,5.0275,5.034,5.0438,5.052,5.0606,5.0731,5.0835,5.0916,5.1024,5.1081,5.1094,5.1108,5.1107,5.1121,5.1017,5.0991,5.1096,5.1096,5.1096,5.1096,5.1096,5.1096,4.9906,5.0019,5.0057,5.0206,5.0265,5.0375,5.0426,5.0498,5.0565,5.0702,5.0788,5.084,5.0924,5.1039,5.1136,5.1158,5.1198,5.1211,5.1235,5.1138,5.1127,5.1117,5.1093,5.1218,5.1218,5.1331,5.1332,5.1333]}]]